When you browse on this site, cookies collect data to enhance your experience and personalize the content and advertising you see.
Visit our Privacy Policy to learn more. By continuing to use the site, you agree to this use of cookies and data.
  • In Austria
  • List of Countries
  • For 7 days
  • Water Temperature
  • Weather Map
  • News
  • Weather Widgets
  • user-avatar
    Login

    Hourly Weather Ali Bayramli

    Today, 9 December, Monday

    Time Temperature Precipitation Wind Pressure Humidity
    00:00 +7°C° 0.4 mm 2 mps 757 mmHg 77%
    01:00 +7°C° 0.6 mm 2 mps 757 mmHg 80%
    02:00 +7°C° 0.6 mm 2 mps 757 mmHg 82%
    03:00 +7°C° 0 mm 3 mps 757 mmHg 86%
    04:00 +7°C° 0.7 mm 2 mps 758 mmHg 87%
    05:00 +7°C° 0.7 mm 2 mps 758 mmHg 88%
    06:00 +7°C° 0.7 mm 2 mps 758 mmHg 89%
    07:00 +7°C° 1 mm 2 mps 759 mmHg 89%
    08:00 +8°C° 1 mm 1 mps 759 mmHg 90%
    09:00 +8°C° 0 mm 1 mps 760 mmHg 91%
    10:00 +8°C° 0.6 mm 1 mps 760 mmHg 90%
    11:00 +9°C° 0.6 mm 1 mps 760 mmHg 89%
    12:00 +8°C° 0.6 mm 2 mps 760 mmHg 88%
    13:00 +8°C° 0.2 mm 2 mps 760 mmHg 86%
    14:00 +8°C° 0.2 mm 2 mps 760 mmHg 85%
    15:00 +8°C° 0 mm 2 mps 760 mmHg 83%
    16:00 +8°C° 0 mm 2 mps 761 mmHg 83%
    17:00 +8°C° 0 mm 2 mps 761 mmHg 83%
    18:00 +7°C° 0 mm 2 mps 761 mmHg 84%
    19:00 +7°C° 0 mm 2 mps 762 mmHg 83%
    20:00 +7°C° 0 mm 2 mps 762 mmHg 82%
    21:00 +7°C° 0 mm 2 mps 762 mmHg 80%
    22:00 +7°C° 0 mm 2 mps 762 mmHg 81%
    23:00 +7°C° 0 mm 2 mps 762 mmHg 81%

    Tomorrow, 10 December, Tuesday

    Time Temperature Precipitation Wind Pressure Humidity
    00:00 +7°C° 0 mm 2 mps 762 mmHg 82%
    01:00 +8°C° 0 mm 1 mps 762 mmHg 82%
    02:00 +8°C° 0 mm 1 mps 762 mmHg 82%
    03:00 +8°C° 0 mm 1 mps 762 mmHg 83%
    04:00 +8°C° 0 mm 1 mps 762 mmHg 82%
    05:00 +8°C° 0 mm 1 mps 763 mmHg 81%
    06:00 +8°C° 0 mm 1 mps 763 mmHg 81%
    07:00 +9°C° 0 mm 1 mps 763 mmHg 79%
    08:00 +9°C° 0 mm 1 mps 763 mmHg 77%
    09:00 +10°C° 0 mm 1 mps 764 mmHg 75%
    10:00 +10°C° 0 mm 1 mps 763 mmHg 74%
    11:00 +10°C° 0 mm 1 mps 763 mmHg 74%
    12:00 +11°C° 0 mm 1 mps 763 mmHg 73%
    13:00 +11°C° 0 mm 1 mps 762 mmHg 72%
    14:00 +11°C° 0 mm 1 mps 762 mmHg 72%
    15:00 +11°C° 0 mm 1 mps 762 mmHg 71%
    16:00 +11°C° 0 mm 1 mps 762 mmHg 74%
    17:00 +10°C° 0 mm 1 mps 762 mmHg 78%
    18:00 +10°C° 0 mm 1 mps 762 mmHg 81%
    19:00 +10°C° 0 mm 1 mps 762 mmHg 81%
    20:00 +10°C° 0 mm 1 mps 762 mmHg 82%
    21:00 +10°C° 0 mm 1 mps 762 mmHg 82%
    22:00 +10°C° 0 mm 1 mps 762 mmHg 83%
    23:00 +10°C° 0 mm 1 mps 762 mmHg 83%

    Day after tomorrow, 11 December, Wednesday

    Time Temperature Precipitation Wind Pressure Humidity
    00:00 +10°C° 0 mm 1 mps 762 mmHg 83%
    01:00 +10°C° 0 mm 1 mps 762 mmHg 83%
    02:00 +10°C° 0 mm 1 mps 762 mmHg 82%
    03:00 +10°C° 0 mm 1 mps 762 mmHg 82%
    04:00 +9°C° 0 mm 1 mps 762 mmHg 82%
    05:00 +9°C° 0 mm 1 mps 762 mmHg 81%
    06:00 +9°C° 0 mm 1 mps 762 mmHg 81%
    07:00 +8°C° 0 mm 2 mps 762 mmHg 79%
    08:00 +8°C° 0 mm 2 mps 762 mmHg 77%
    09:00 +9°C° 0 mm 2 mps 762 mmHg 76%
    10:00 +9°C° 0 mm 2 mps 762 mmHg 73%
    11:00 +10°C° 0 mm 2 mps 762 mmHg 70%
    12:00 +11°C° 0 mm 1 mps 761 mmHg 66%
    13:00 +12°C° 0 mm 1 mps 761 mmHg 65%
    14:00 +12°C° 0 mm 1 mps 761 mmHg 64%
    15:00 +12°C° 0 mm 1 mps 761 mmHg 62%
    16:00 +12°C° 0 mm 2 mps 761 mmHg 64%
    17:00 +10°C° 0 mm 2 mps 762 mmHg 66%
    18:00 +10°C° 0 mm 3 mps 762 mmHg 68%
    19:00 +10°C° 0 mm 3 mps 762 mmHg 69%
    20:00 +9°C° 0 mm 3 mps 762 mmHg 70%
    21:00 +9°C° 0 mm 3 mps 763 mmHg 71%
    22:00 +9°C° 0 mm 2 mps 763 mmHg 74%
    23:00 +8°C° 0 mm 2 mps 763 mmHg 76%

    12 December, Thursday

    Time Temperature Precipitation Wind Pressure Humidity
    00:00 +7°C° 0 mm 2 mps 763 mmHg 79%
    01:00 +8°C° 0 mm 1 mps 762 mmHg 80%
    02:00 +8°C° 0 mm 1 mps 762 mmHg 81%
    03:00 +7°C° 0 mm 1 mps 762 mmHg 83%
    04:00 +7°C° 0 mm 1 mps 762 mmHg 84%
    05:00 +7°C° 0 mm 1 mps 762 mmHg 86%
    06:00 +5°C° 0 mm 0 mps 762 mmHg 87%
    07:00 +6°C° 0 mm 0 mps 762 mmHg 82%
    08:00 +7°C° 0 mm 0 mps 763 mmHg 77%
    09:00 +8°C° 0 mm 0 mps 763 mmHg 72%
    10:00 +9°C° 0 mm 0 mps 762 mmHg 69%
    11:00 +11°C° 0 mm 1 mps 762 mmHg 66%
    12:00 +11°C° 0 mm 1 mps 761 mmHg 62%
    13:00 +12°C° 0 mm 1 mps 761 mmHg 62%
    14:00 +12°C° 0 mm 1 mps 760 mmHg 62%
    15:00 +12°C° 0 mm 1 mps 760 mmHg 61%
    16:00 +11°C° 0 mm 1 mps 760 mmHg 66%
    17:00 +11°C° 0 mm 1 mps 760 mmHg 70%
    18:00 +9°C° 0 mm 2 mps 760 mmHg 74%
    19:00 +10°C° 0 mm 1 mps 760 mmHg 74%
    20:00 +10°C° 0 mm 1 mps 759 mmHg 74%
    21:00 +10°C° 0 mm 1 mps 759 mmHg 75%
    22:00 +10°C° 0 mm 1 mps 759 mmHg 74%
    23:00 +10°C° 0 mm 1 mps 759 mmHg 74%

    13 December, Friday

    Time Temperature Precipitation Wind Pressure Humidity
    00:00 +10°C° 0 mm 1 mps 758 mmHg 73%
    01:00 +10°C° 0 mm 1 mps 758 mmHg 73%
    02:00 +10°C° 0 mm 1 mps 758 mmHg 72%
    03:00 +10°C° 0 mm 1 mps 758 mmHg 72%
    04:00 +9°C° 0 mm 2 mps 758 mmHg 72%
    05:00 +9°C° 0 mm 2 mps 758 mmHg 73%
    06:00 +9°C° 0 mm 2 mps 758 mmHg 74%
    07:00 +9°C° 0.1 mm 2 mps 758 mmHg 73%
    08:00 +9°C° 0.1 mm 3 mps 759 mmHg 72%
    09:00 +9°C° 0.1 mm 3 mps 759 mmHg 72%
    10:00 +8°C° 0.1 mm 4 mps 759 mmHg 72%
    11:00 +8°C° 0.1 mm 4 mps 758 mmHg 73%
    12:00 +8°C° 0.1 mm 5 mps 758 mmHg 73%
    13:00 +8°C° 0 mm 5 mps 758 mmHg 73%
    14:00 +8°C° 0 mm 4 mps 758 mmHg 73%
    15:00 +8°C° 0 mm 4 mps 758 mmHg 72%
    16:00 +8°C° 0 mm 4 mps 758 mmHg 74%
    17:00 +8°C° 0 mm 4 mps 758 mmHg 75%
    18:00 +8°C° 0 mm 3 mps 759 mmHg 77%
    19:00 +8°C° 0 mm 3 mps 759 mmHg 78%
    20:00 +8°C° 0 mm 3 mps 759 mmHg 79%
    21:00 +8°C° 0 mm 3 mps 759 mmHg 79%
    22:00 +8°C° 0 mm 3 mps 759 mmHg 80%
    23:00 +8°C° 0 mm 2 mps 759 mmHg 81%

    14 December, Saturday

    Time Temperature Precipitation Wind Pressure Humidity
    00:00 +8°C° 0 mm 2 mps 759 mmHg 82%
    01:00 +8°C° 0 mm 2 mps 759 mmHg 82%
    02:00 +8°C° 0 mm 2 mps 759 mmHg 82%
    03:00 +8°C° 0 mm 2 mps 759 mmHg 82%
    04:00 +9°C° 0 mm 1 mps 760 mmHg 82%
    05:00 +9°C° 0 mm 1 mps 760 mmHg 83%
    06:00 +8°C° 0 mm 1 mps 760 mmHg 84%
    07:00 +9°C° 0 mm 1 mps 760 mmHg 82%
    08:00 +9°C° 0 mm 1 mps 761 mmHg 81%
    09:00 +9°C° 0 mm 1 mps 761 mmHg 79%
    10:00 +10°C° 0 mm 1 mps 761 mmHg 78%
    11:00 +9°C° 0 mm 2 mps 761 mmHg 76%
    12:00 +9°C° 0 mm 2 mps 760 mmHg 75%
    13:00 +9°C° 0 mm 2 mps 760 mmHg 75%
    14:00 +9°C° 0 mm 2 mps 760 mmHg 75%
    15:00 +9°C° 0 mm 2 mps 760 mmHg 75%
    16:00 +9°C° 0 mm 2 mps 760 mmHg 78%
    17:00 +9°C° 0 mm 2 mps 760 mmHg 80%
    18:00 +9°C° 0 mm 2 mps 760 mmHg 83%
    19:00 +9°C° 0 mm 2 mps 760 mmHg 83%
    20:00 +9°C° 0 mm 2 mps 761 mmHg 83%
    21:00 +9°C° 0 mm 2 mps 761 mmHg 84%
    22:00 +9°C° 0 mm 2 mps 761 mmHg 83%
    23:00 +9°C° 0 mm 2 mps 761 mmHg 82%
    Show more